Home > Weather > Nærbø > Past weeks

Flag for Norway Past Weather in Nærbø, Norway — Yesterday and Last 2 Weeks

Now
63 °F

Passing clouds.


Feels Like: 63 °F
Forecast: 54 / 60 °F
Wind: 7 mph from Northwest

Location: Stavanger / Sola

Current Time: Aug 27, 2016 at 7:16:16 PM

Latest Report: Aug 27, 2016 at 6:20 PM


Visibility: N/A

Pressure: 30.12 "Hg

Humidity: 64%

Dew Point: 50 °F

Location of NærbøLocation

Past Weather in Nærbø — Graph

°F

Nærbø Temperature Yesterday

Maximum temperature yesterday: 68 °F (at 10:20 AM)
Minimum temperature yesterday: 59 °F (at 11:50 AM)
Average temperature yesterday: 62 °F

High & Low Weather Summary for the Past Weeks

 TemperatureHumidityPressure
High70 °F (Aug 21, 12:20 PM)100% (Aug 13, 4:50 AM)30.24 "Hg (Aug 13, 4:50 AM)
Low48 °F (Aug 16, 5:50 AM)56% (Aug 20, 2:20 PM)29.65 "Hg (Aug 26, 10:20 AM)
Average60 °F86%30.00 "Hg
* Reported Aug 12 5:20 PM — Aug 27 5:50 PM, Nærbø, Weather by CustomWeather, © 2016

Note: Actual official high and low records may vary slightly from our data, if they occured in-between our weather recording intervals... More about our weather records

Advertising

Nærbø Weather History for the Previous 24 Hours

Scroll right to see more
 ConditionsComfort  
Time TempWeatherWind HumidityBarometerVisibility
5:50 PM
Sat, Aug 27
63 °FScattered clouds.7 mph64%30.15 "HgN/A
5:20 PM63 °FScattered clouds.8 mph64%30.15 "HgN/A
4:50 PM64 °FScattered clouds.6 mph64%30.15 "HgN/A
4:20 PM64 °FScattered clouds.7 mph64%30.15 "HgN/A
3:50 PM64 °FScattered clouds.5 mph64%30.15 "HgN/A
3:20 PM64 °FScattered clouds.3 mph64%30.15 "HgN/A
2:50 PM64 °FPartly sunny.3 mph64%30.15 "HgN/A
2:20 PM63 °FPartly sunny.3 mph68%30.15 "HgN/A
1:50 PM63 °FPartly sunny.5 mph68%30.15 "HgN/A
1:20 PM63 °FScattered clouds.6 mph73%30.12 "HgN/A
12:50 PM63 °FScattered clouds.7 mph73%30.12 "HgN/A
12:20 PM64 °FScattered clouds.7 mph68%30.12 "HgN/A
11:50 AM63 °FScattered clouds.6 mph68%30.12 "HgN/A
11:20 AM63 °FScattered clouds.8 mph68%30.12 "HgN/A
10:50 AM63 °FScattered clouds.9 mph73%30.09 "HgN/A
10:20 AM63 °FScattered clouds.8 mph73%30.09 "HgN/A
9:50 AM61 °FScattered clouds.7 mph77%30.09 "HgN/A
9:20 AM61 °FScattered clouds.7 mph77%30.07 "HgN/A
8:50 AM61 °FScattered clouds.5 mph77%30.07 "HgN/A
8:20 AM61 °FScattered clouds.3 mph72%30.07 "HgN/A
7:50 AM59 °FScattered clouds.3 mph77%30.07 "HgN/A
7:20 AM59 °FPassing clouds.3 mph77%30.04 "HgN/A
6:50 AM57 °FPassing clouds.3 mph88%30.04 "HgN/A
6:20 AM55 °FPassing clouds.3 mph88%30.04 "HgN/A
5:50 AM59 °FPassing clouds.3 mph82%30.01 "HgN/A
4:50 AM57 °FPassing clouds.3 mph88%30.01 "HgN/A
3:50 AM59 °FPassing clouds.3 mph82%30.01 "HgN/A
2:50 AM59 °FPartly cloudy.5 mph82%30.01 "HgN/A
1:50 AM59 °FPartly cloudy.6 mph88%29.98 "HgN/A
12:50 AM61 °FPassing clouds.6 mph77%29.98 "HgN/A
12:20 AM61 °FPassing clouds.6 mph77%29.98 "HgN/A
11:50 PM
Fri, Aug 26
61 °FPassing clouds.7 mph77%29.95 "HgN/A
11:20 PM61 °FPassing clouds.9 mph77%29.95 "HgN/A
10:50 PM61 °FPartly cloudy.9 mph77%29.95 "HgN/A
10:20 PM59 °FPartly cloudy.9 mph82%29.92 "HgN/A
9:50 PM61 °FBroken clouds.13 mph83%29.92 "HgN/A
9:20 PM61 °FPartly sunny.13 mph77%29.92 "HgN/A
8:50 PM61 °FScattered showers. Partly sunny.13 mph83%29.89 "HgN/A
8:20 PM61 °FBroken clouds.16 mph83%29.89 "HgN/A
7:50 PM61 °FRain showers. Partly sunny.15 mph88%29.89 "HgN/A
7:20 PM61 °FRain showers. Broken clouds.10 mph94%29.89 "HgN/A
Weather by CustomWeather, © 2016

See weather overviewHow to use our weather pages